Powrót do katalogu

KOSMOS-2578

AktywnyMilitariaSSO
NORAD 61180·PAYLOAD·🇷🇺 Russia
Ta nazwa satelity nie została jeszcze potwierdzona przez oficjalne źródła.

Wystrzelony Sep 17, 2024 z Plesetsk Cosmodrome

Loading…

Następne Przeloty (najbliższe 24 godziny)

TLE

ŚwieżeSource: Space-Track

Epoka: Sep 14, 2026, 05:06 UTC

1 61180U 24166B   26257.21270046  .00019551  00000-0  13029-3 0  9998
2 61180  96.6629 145.0050 0000847  24.2776 335.8531 15.75412227114750

Śledź KOSMOS-2578 w czasie rzeczywistym z AllMySat

Download on the App Store